Regional Weather Roundup
Issued by NWS

Home | Current Version | Previous Version | Graphics & Text | Print | Product List | Glossary On
Versions: 1 2 3 4 5 6 7 8 9 10 11 12 13 14 15 16 17 18 19 20 21 22 23 24 25 26 27 28 29 30 31 32 33 34 35 36 37 38 39 40 41 42 43 44 45 46 47 48 49 50
679
ASUS45 KBOI 072310
RWRID

IDAHO REGIONAL WEATHER ROUNDUP
NATIONAL WEATHER SERVICE BOISE ID
400 PM MST SUN FEB 07 2016

NOTE: "FAIR" INDICATES FEW OR NO CLOUDS BELOW 12000 FEET
WITH NO SIGNIFICANT WEATHER AND/OR OBSTRUCTIONS TO VISIBILITY

IDZ012-014-080000-
SOUTHWEST IDAHO


CITY           SKY/WX    TMP DP  RH WIND       PRES   REMARKS
BOISE          SUNNY     47  36  65 NW8       30.59S
CALDWELL       SUNNY     47  36  65 W7        30.61S
MOUNTAIN HOME  SUNNY     49  46  90 NW8       30.58S
$$

IDZ016-017-080000-
SOUTHCENTRAL IDAHO


CITY           SKY/WX    TMP DP  RH WIND       PRES   REMARKS
BURLEY         MOSUNNY   40  32  73 NW6       30.56S
JEROME         MOSUNNY   34  29  82 NE7       30.58S WCI  28
TWIN FALLS     MOSUNNY   42  36  79 CALM      30.57S
$$

IDZ019>023-080000-
SOUTHEAST IDAHO


CITY           SKY/WX    TMP DP  RH WIND       PRES   REMARKS
IDAHO FALLS    CLOUDY    24  21  88 N7        30.60R WCI  16
POCATELLO      CLOUDY    32  26  78 NW6       30.59S WCI  26
REXBURG        CLOUDY    24  23  96 SW5       30.59R FOG     WCI  18
$$

IDZ006-010-011-018-031-032-080000-
CENTRAL IDAHO MOUNTAINS


CITY           SKY/WX    TMP DP  RH WIND       PRES   REMARKS
MCCALL         SUNNY     35  26  69 CALM      30.56R
HAILEY         MOSUNNY   32  19  59 SE6       30.55R WCI  26
STANLEY          N/A     35  17  47 CALM      30.54S
SALMON         CLOUDY    28  18  64 CALM      30.59S
CHALLIS        SUNNY     31  17  56 CALM      30.55S
$$

IDZ002-004-006-007-026-080000-
NORTHERN IDAHO


CITY           SKY/WX    TMP DP  RH WIND       PRES   REMARKS
LEWISTON       PTSUNNY   48  33  56 NW5       30.61S
LOWELL           N/A     42  36  79 N3        30.63R
COEUR D`ALENE  PTSUNNY   43  30  61 NE6       30.57F
MULLAN PASS    CLOUDY    29  21  72 CALM      30.51R
$$




USA.gov is the U.S. government's official web portal to all federal, state and local government web resources and services.